Wind_Speed
18 14 14 14 12 11 11 11 11 11 11 12 12 12 12 12 11 11 11 11 10 9 8 8 6 5 6 7 7 6 5 5 5 5 4 4 4 3 3 3 3 2
20 16 15 14 13 12 11 11 11 9 9 8 8 10 10 10 11 11 10 10 10 9 8 8 7 6 5 6 6 5 4 4 4 4 4 4 5 5 5 5 5 4
22 19 17 16 14 14 13 12 10 7 7 6 4 5 7 7 9 9 9 9 9 9 9 8 7 6 6 5 5 4 4 4 4 5 5 5 6 5 6 6 5 5
24 21 19 17 15 14 13 13 12 8 7 6 4 3 3 3 5 6 7 7 7 7 7 7 8 7 6 6 4 4 4 3 4 4 5 5 6 5 6 5 5 5
25 22 19 17 15 14 13 13 14 12 9 7 6 5 4 2 2 2 3 3 4 5 5 5 6 6 6 6 5 4 3 3 3 3 3 4 4 4 5 4 4 4
25 21 17 17 16 16 15 14 14 14 11 9 8 8 7 5 3 2 1 1 2 2 2 3 3 4 4 4 5 5 4 3 3 2 2 2 2 2 2 2 2 2
23 20 16 17 17 17 16 15 14 14 12 9 8 8 7 7 6 5 4 3 3 2 2 2 3 3 3 4 4 4 4 4 4 4 3 3 3 3 2 3 3 3
23 21 18 18 17 17 19 19 17 16 15 12 12 10 8 8 8 8 7 7 6 5 5 4 5 5 6 7 7 7 7 6 6 6 5 4 4 4 4 4 5 5
23 23 21 20 17 17 20 23 21 19 17 16 15 14 11 9 8 9 9 10 10 9 9 8 8 8 8 9 9 9 9 9 9 8 8 8 7 6 6 5 6 6
25 25 24 23 21 18 19 21 20 19 18 17 16 15 14 11 9 10 10 11 12 11 12 13 13 12 12 12 12 12 12 12 11 10 10 11 11 10 9 8 8 8
27 26 24 24 24 22 20 19 18 18 18 18 18 17 16 15 14 13 12 12 13 13 15 17 17 16 16 16 15 15 14 14 14 13 13 13 14 13 12 12 11 10
25 27 27 25 24 23 23 22 20 18 17 19 19 19 19 20 19 17 16 16 16 16 16 18 20 20 20 20 20 19 18 17 17 16 15 16 16 15 15 14 14 12
21 23 22 22 21 21 22 21 20 18 18 19 20 21 22 23 22 20 19 18 18 18 18 18 19 22 23 23 23 22 21 21 20 19 18 18 18 17 17 16 15 14
17 16 16 17 17 16 16 16 17 18 19 20 20 19 21 23 23 22 22 23 25 24 22 21 21 23 25 25 25 25 24 23 23 22 21 20 20 19 18 18 17 16
13 12 11 13 13 11 11 10 11 12 13 14 14 13 14 16 18 18 18 18 20 20 18 20 23 26 26 26 27 27 27 25 24 24 23 22 22 21 20 20 19 18
9 9 10 10 10 10 9 9 9 10 10 10 11 11 11 12 13 14 14 13 13 14 13 16 22 26 28 28 29 29 29 28 27 25 24 24 24 24 23 22 22 21
8 9 10 10 10 10 9 8 8 8 9 9 9 9 10 10 11 11 12 13 14 15 16 18 21 24 27 29 30 30 30 30 29 27 26 27 27 26 25 24 24 24
8 9 9 9 8 8 7 5 5 5 6 6 7 7 7 7 8 9 10 13 14 15 16 18 20 21 23 26 28 29 30 31 31 30 29 29 30 29 28 27 26 24
10 9 10 10 9 9 7 6 7 6 5 5 6 7 7 7 8 9 9 11 12 14 15 16 17 19 20 21 23 24 25 28 30 31 30 31 31 31 30 29 26 23
11 11 10 10 9 8 7 8 9 10 9 8 8 9 9 9 9 11 11 11 13 15 16 16 16 16 17 19 20 20 22 24 27 29 29 30 31 31 29 26 23 20
10 11 10 8 7 5 5 5 6 8 9 10 11 12 12 12 12 13 13 13 14 14 14 13 13 13 15 17 17 18 19 21 25 27 28 30 31 29 25 21 19 19
7 8 7 5 3 2 2 3 2 2 3 5 7 9 10 11 13 13 13 13 13 13 11 11 12 12 13 14 15 15 15 17 22 26 28 29 29 25 21 20 20 20
9 9 7 6 4 2 1 2 3 2 2 2 4 6 8 9 10 12 14 14 13 13 13 13 13 13 14 14 15 14 13 16 21 24 25 25 24 21 21 21 20 19
12 11 9 7 7 5 5 5 5 4 4 5 5 6 8 9 10 12 14 15 15 16 16 16 15 15 15 15 14 14 14 16 19 21 22 22 22 21 21 20 18 17
9 9 9 9 9 9 10 10 8 7 7 7 6 7 8 10 11 13 15 16 17 18 18 18 17 17 16 16 15 14 14 15 18 19 21 22 23 22 21 19 17 15
8 7 9 11 12 13 12 12 11 11 11 10 10 9 9 11 13 15 16 17 18 19 19 19 18 17 16 16 15 14 14 15 17 19 21 22 23 22 20 19 17 15
Wind_Direction
195 185 166 159 161 158 151 135 122 118 119 119 121 122 124 126 127 128 127 127 127 126 125 122 117 114 112 112 112 108 106 106 104 103 101 101 100 100 109 115 116 117
202 196 178 170 166 159 154 138 126 124 120 113 113 115 119 125 129 129 128 128 129 129 129 129 127 120 112 113 117 119 117 119 115 107 106 106 103 104 107 110 118 124
206 201 191 184 172 158 158 150 138 133 129 127 121 110 109 118 123 125 127 130 133 134 135 134 130 125 120 119 123 128 128 126 122 119 117 111 108 109 106 106 108 110
206 203 200 193 176 160 162 165 161 162 158 161 173 150 130 125 120 119 121 128 137 139 140 142 139 135 132 130 132 135 130 127 132 135 130 121 119 119 114 108 106 100
208 206 202 196 186 174 174 174 173 179 181 185 194 194 199 202 138 122 115 123 136 143 146 150 152 150 147 144 144 145 138 134 139 137 130 132 137 135 127 122 115 108
208 206 200 193 191 191 189 183 180 185 191 197 203 206 217 229 230 223 221 185 167 169 168 173 181 174 174 178 171 170 173 173 177 171 166 189 195 181 171 172 162 145
204 204 200 194 195 198 196 189 185 186 187 196 204 212 229 244 252 256 259 261 260 254 238 239 250 243 240 243 233 224 220 216 220 219 220 228 232 245 254 248 242 225
199 198 198 199 198 196 194 189 185 181 180 187 194 201 222 248 264 268 267 274 279 280 278 271 266 266 265 265 267 263 258 256 248 243 257 264 253 254 269 276 269 260
196 195 196 198 192 185 187 188 189 189 188 188 189 194 202 218 249 266 275 285 288 286 288 288 280 273 268 268 272 271 269 270 266 259 266 274 273 268 269 275 273 270
193 193 195 198 196 192 191 193 194 196 199 198 198 202 201 201 219 242 264 281 283 282 286 291 289 283 279 274 272 273 270 269 270 267 263 266 271 270 266 268 266 263
193 196 197 197 198 201 203 206 204 203 207 210 214 218 212 202 204 216 232 245 252 260 272 283 286 283 282 279 275 274 271 267 269 267 262 260 263 263 261 263 267 267
192 197 200 202 202 204 207 211 211 212 216 219 227 234 224 207 202 212 223 224 226 235 247 265 276 276 277 278 275 272 269 267 266 266 263 260 260 260 258 258 264 267
193 195 199 206 208 208 209 212 214 220 226 228 234 240 230 215 209 215 223 225 230 237 242 250 262 267 269 270 270 269 267 265 265 263 262 260 260 260 258 258 262 264
215 212 210 215 220 219 216 218 223 228 232 235 239 240 235 230 229 231 237 242 244 247 251 251 250 254 260 262 263 264 263 262 262 260 260 259 258 258 256 258 260 261
220 217 212 215 219 214 204 200 203 208 214 219 222 225 228 230 230 229 235 243 243 241 247 250 244 244 249 254 257 259 259 259 258 256 256 255 254 253 253 256 259 263
198 192 191 197 197 193 189 183 179 186 194 197 204 216 224 221 217 217 220 223 223 223 233 245 244 243 245 247 251 255 256 255 254 253 252 251 250 249 251 257 263 268
173 172 175 182 184 184 186 187 188 195 199 201 209 219 221 218 219 228 233 230 227 229 236 244 247 247 246 246 248 253 256 254 252 252 251 249 248 248 253 260 266 270
179 176 173 173 174 176 177 183 192 196 196 197 203 208 211 216 221 228 235 235 235 239 243 246 249 250 249 249 250 252 256 256 254 253 252 250 248 250 255 259 261 265
192 187 179 172 170 174 177 181 185 189 201 208 206 213 224 234 238 237 239 242 245 251 256 256 256 256 256 255 255 256 257 257 255 253 251 249 248 249 250 251 254 259
189 181 178 175 174 177 176 179 184 187 195 203 207 214 222 232 243 247 250 255 256 257 260 260 260 262 261 260 260 261 262 258 252 247 245 244 243 242 242 244 249 255
185 181 185 183 178 174 161 157 172 181 190 200 208 216 221 225 234 246 255 258 257 258 256 253 254 257 260 263 264 262 263 261 252 243 240 241 238 235 235 241 248 253
191 192 206 208 193 174 138 112 104 134 183 210 221 229 233 232 232 240 252 259 263 269 265 255 254 259 264 270 273 270 269 266 254 243 237 236 234 233 237 245 249 253
203 209 226 242 251 253 285 331 334 347 340 298 270 255 253 253 244 239 245 253 261 270 273 270 271 273 273 276 278 274 269 263 253 242 236 236 237 242 248 249 248 252
212 224 238 247 251 256 283 302 303 309 317 316 306 282 263 259 254 247 247 250 252 258 265 270 273 275 273 270 269 266 260 257 253 246 242 243 244 245 247 248 251 255
207 225 233 238 249 268 286 290 286 293 308 313 305 291 274 259 253 251 251 251 251 254 258 263 268 271 266 260 258 258 255 257 258 255 250 247 245 244 244 246 251 256
216 226 237 247 259 270 278 279 279 287 296 301 300 289 271 255 250 251 253 254 256 257 259 263 267 268 264 257 253 253 255 260 262 260 256 251 248 248 247 247 248 249
Height
1523 1522 1522 1522 1523 1525 1525 1526 1526 1528 1529 1530 1531 1532 1532 1533 1534 1535 1536 1537 1537 1538 1539 1539 1540 1540 1540 1541 1541 1541 1542 1542 1542 1542 1542 1543 1543 1542 1542 1542 1542 1543
1523 1522 1522 1522 1523 1524 1525 1525 1526 1527 1528 1530 1531 1532 1533 1534 1535 1536 1537 1537 1538 1539 1540 1540 1541 1541 1541 1542 1542 1543 1543 1543 1543 1543 1543 1543 1543 1543 1543 1543 1543 1543
1524 1522 1521 1521 1522 1523 1524 1525 1525 1526 1528 1529 1531 1532 1534 1535 1536 1537 1537 1538 1539 1539 1540 1541 1541 1542 1542 1543 1543 1543 1544 1544 1543 1543 1543 1543 1543 1543 1543 1543 1543 1543
1523 1522 1521 1521 1522 1523 1524 1524 1525 1526 1527 1528 1530 1531 1533 1534 1536 1537 1538 1539 1539 1540 1541 1541 1542 1543 1543 1543 1544 1544 1544 1544 1544 1544 1544 1544 1544 1544 1544 1544 1544 1544
1522 1522 1521 1521 1522 1523 1523 1524 1525 1525 1526 1528 1529 1531 1533 1534 1536 1537 1538 1539 1540 1541 1541 1542 1543 1543 1544 1544 1544 1545 1545 1545 1545 1545 1545 1545 1545 1545 1545 1545 1545 1544
1521 1521 1522 1522 1522 1523 1523 1524 1525 1526 1526 1527 1529 1530 1532 1534 1535 1537 1538 1539 1540 1541 1541 1542 1543 1543 1544 1544 1544 1545 1545 1546 1546 1546 1546 1546 1546 1546 1546 1546 1545 1545
1519 1520 1521 1521 1522 1523 1523 1524 1525 1526 1526 1527 1529 1530 1532 1533 1535 1536 1538 1539 1539 1540 1541 1542 1542 1543 1543 1544 1544 1544 1545 1545 1545 1546 1546 1546 1546 1546 1546 1546 1546 1545
1516 1518 1519 1520 1521 1522 1523 1523 1524 1524 1525 1526 1527 1529 1531 1532 1534 1536 1537 1538 1539 1540 1541 1541 1542 1542 1543 1543 1543 1544 1544 1544 1544 1545 1545 1545 1545 1545 1545 1545 1545 1545
1513 1515 1517 1518 1519 1521 1521 1522 1522 1523 1523 1524 1525 1526 1528 1530 1532 1534 1536 1537 1538 1538 1539 1540 1541 1541 1542 1542 1543 1543 1543 1543 1544 1544 1543 1543 1543 1544 1544 1544 1544 1544
1509 1511 1513 1515 1517 1518 1519 1520 1522 1523 1523 1524 1524 1525 1526 1528 1530 1533 1534 1536 1536 1537 1537 1538 1538 1539 1540 1541 1541 1542 1542 1542 1542 1542 1542 1542 1542 1542 1542 1542 1543 1543
1506 1508 1510 1512 1513 1515 1517 1519 1520 1522 1523 1524 1524 1525 1525 1526 1528 1530 1531 1533 1534 1535 1535 1535 1536 1537 1538 1538 1539 1540 1540 1540 1540 1541 1541 1541 1540 1540 1540 1540 1541 1541
1504 1505 1506 1508 1510 1511 1513 1515 1517 1520 1522 1523 1524 1524 1524 1525 1525 1527 1528 1529 1531 1533 1534 1534 1534 1535 1535 1536 1537 1537 1537 1538 1538 1538 1539 1539 1539 1539 1539 1539 1539 1539
1503 1502 1504 1506 1508 1509 1510 1512 1514 1517 1519 1522 1523 1523 1524 1524 1525 1526 1526 1527 1528 1530 1532 1532 1532 1533 1533 1533 1534 1534 1535 1535 1536 1536 1537 1537 1537 1538 1538 1538 1538 1538
1504 1504 1505 1507 1508 1508 1509 1510 1512 1514 1516 1518 1520 1521 1522 1523 1524 1525 1526 1526 1526 1527 1528 1529 1530 1531 1531 1531 1532 1532 1533 1533 1534 1534 1534 1535 1536 1536 1536 1536 1536 1537
1504 1505 1505 1506 1507 1508 1509 1510 1512 1513 1514 1516 1517 1518 1520 1521 1522 1523 1523 1523 1523 1523 1524 1525 1527 1528 1529 1530 1530 1530 1530 1531 1531 1532 1532 1533 1533 1534 1534 1534 1534 1535
1503 1504 1504 1506 1507 1508 1509 1510 1511 1512 1514 1515 1516 1516 1518 1519 1519 1520 1520 1520 1520 1521 1522 1522 1523 1525 1526 1527 1528 1528 1528 1528 1529 1529 1530 1530 1531 1531 1531 1532 1532 1532
1503 1504 1505 1506 1506 1507 1508 1508 1509 1511 1512 1513 1514 1514 1515 1516 1517 1517 1517 1518 1518 1518 1519 1520 1521 1522 1523 1525 1526 1526 1526 1526 1526 1526 1527 1527 1528 1528 1529 1529 1530 1530
1504 1505 1505 1506 1506 1507 1507 1508 1508 1509 1509 1510 1511 1512 1513 1513 1514 1515 1515 1516 1516 1516 1517 1517 1518 1519 1520 1522 1523 1523 1523 1523 1523 1524 1524 1524 1524 1525 1526 1526 1527 1527
1505 1505 1505 1506 1506 1507 1507 1507 1508 1508 1509 1510 1510 1511 1511 1511 1512 1513 1514 1514 1514 1514 1514 1515 1516 1516 1517 1518 1519 1519 1520 1520 1520 1520 1521 1521 1521 1522 1523 1523 1524 1525
1504 1504 1505 1505 1506 1506 1507 1507 1508 1508 1509 1510 1510 1511 1511 1510 1511 1511 1512 1512 1512 1512 1512 1513 1513 1514 1514 1514 1515 1515 1516 1516 1517 1517 1517 1518 1519 1519 1520 1521 1521 1522
1504 1504 1504 1505 1505 1505 1506 1506 1507 1507 1508 1509 1509 1510 1510 1510 1510 1510 1510 1511 1510 1511 1511 1511 1511 1511 1511 1511 1512 1512 1513 1514 1514 1515 1515 1516 1516 1516 1518 1519 1520 1520
1503 1503 1504 1504 1504 1504 1504 1505 1505 1506 1506 1507 1507 1508 1508 1508 1509 1509 1509 1509 1508 1509 1510 1509 1509 1509 1509 1509 1509 1510 1511 1512 1512 1513 1513 1513 1513 1515 1517 1518 1518 1519
1502 1502 1502 1503 1503 1503 1503 1503 1504 1504 1505 1505 1506 1506 1506 1506 1507 1507 1507 1506 1506 1507 1507 1507 1507 1507 1507 1507 1507 1508 1509 1510 1511 1511 1512 1512 1513 1514 1515 1516 1516 1517
1501 1501 1501 1501 1501 1501 1502 1502 1502 1503 1503 1504 1504 1504 1504 1505 1505 1505 1504 1504 1505 1505 1505 1505 1506 1506 1506 1506 1506 1507 1508 1508 1509 1510 1511 1511 1511 1512 1513 1514 1514 1514
1499 1499 1499 1499 1499 1500 1500 1500 1501 1501 1502 1502 1502 1502 1502 1503 1503 1502 1502 1502 1503 1503 1504 1504 1504 1504 1504 1504 1505 1505 1506 1507 1508 1508 1509 1509 1509 1510 1511 1511 1511 1511
1497 1497 1498 1498 1498 1498 1498 1499 1499 1500 1500 1501 1501 1501 1501 1500 1500 1500 1500 1500 1501 1501 1502 1502 1502 1502 1503 1503 1503 1504 1505 1505 1506 1506 1507 1507 1508 1508 1508 1509 1509 1508